Regional Weather Roundup
Issued by NWS

Home | Current Version | Previous Version | Text Only | Print | Product List | Glossary Off
Versions: 1 2 3 4 5 6 7 8 9 10 11 12 13 14 15 16 17 18 19 20 21 22 23 24 25 26 27 28 29 30 31 32 33 34 35 36 37 38 39 40 41 42 43 44 45 46 47 48 49 50

000
ASUS43 KIND 221809
RWRIN

WEATHER ROUNDUP FOR INDIANA
NATIONAL WEATHER SERVICE INDIANAPOLIS IN
100 PM EST WED NOV 22 2017

NOTE: "FAIR" INDICATES FEW OR NO CLOUDS BELOW 12,000 FEET WITH NO
SIGNIFICANT WEATHER AND/OR OBSTRUCTIONS TO VISIBILITY.

* - STATION DOES NOT REPORT WEATHER SUCH AS PRECIPITATION OR FOG.

+ - STATION NOT QUALITY CONTROLLED BY THE NATIONAL WEATHER SERVICE.
    USE DATA WITH CAUTION...ESPECIALLY DEWPOINT AND RELATIVE
    HUMIDITY OBSERVATIONS.

INZ001>003-010>013-019-020-221900-
NORTHWEST INDIANA

CITY           SKY/WX    TMP DP  RH WIND       PRES   REMARKS
GARY /AIRPORT/ MOSUNNY   34  16  47 W12       30.35F WCI  25
KNOX *+        CLOUDY    34  25  69 W8        30.31F WCI  27
LA PORTE +     CLOUDY    36  25  64 N7        30.31F WCI  30
6HR MIN TEMP:  28; 6HR MAX TEMP:  36;

MICHIGAN CITY+ CLOUDY    34  27  75 W8        30.32F WCI  27
MONTICELLO +   MOSUNNY   34  21  57 N3        30.32F
6HR MIN TEMP:  22; 6HR MAX TEMP:  35;

RENSSELAER +   MOSUNNY   34  18  51 W5        30.33F WCI  30
VALPARAISO     SUNNY     37  22  54 VRB5      30.32F WCI  33
6HR MIN TEMP:  30; 6HR MAX TEMP:  37;


$$

LMZ046-743>745-221900-
SOUTHERN LAKE MICHIGAN

STATION/POSITION TIME  TEMP    WIND        PRES    WAVE
                       AIR SEA DIR/SP/G            HT
                 (UTC) (F)     (DEG/KT/KT) (MB)    (FT)
BURNS HARBOR     1740   31     290/  8/ 10 1027.8F
MICHIGAN CITY    1740   32     260/ 14/ 16   N/A

$$

INZ004-005-014>016-021>024-221900-
NORTH CENTRAL INDIANA

CITY           SKY/WX    TMP DP  RH WIND       PRES   REMARKS
ELKHART        CLOUDY    34  19  55 W6        30.30F WCI  29
GOSHEN         CLOUDY    33  18  53 NW5       30.30F WCI  29
6HR MIN TEMP:  31; 6HR MAX TEMP:  35;

LOGANSPORT +   PTSUNNY   34  21  60 NW5       30.31F WCI  30
PERU/GRISSOM   PTSUNNY   36  22  57 NW7       30.30F WCI  31
6HR MIN TEMP:  26; 6HR MAX TEMP:  36;

ROCHESTER +    CLOUDY    37  23  56 NW3       30.30F
SOUTH BEND     CLOUDY    35  23  61 CALM      30.31F
6HR MIN TEMP:  30; 6HR MAX TEMP:  35;

WARSAW +       CLOUDY    32  21  64 N5        30.30F WCI  27

$$

INZ006>009-017-018-025>027-221900-
NORTHEAST INDIANA

CITY           SKY/WX    TMP DP  RH WIND       PRES   REMARKS
AUBURN +       MOSUNNY   32  19  59 NW6       30.29F WCI  26
FORT WAYNE     CLOUDY    36  22  56 NW10      30.30F WCI  28
6HR MIN TEMP:  34; 6HR MAX TEMP:  39;

HUNTINGTON +   CLOUDY    36  20  54 W5        30.29F WCI  32
6HR MIN TEMP:  30; 6HR MAX TEMP:  36;

KENDALLVILLE + CLOUDY    34  20  58 NW8       30.28F WCI  27

$$

INZ028-029-035-036-043>045-051>053-221900-
WEST CENTRAL INDIANA

CITY           SKY/WX    TMP DP  RH WIND       PRES   REMARKS
CRAWFORDSVL +  PTSUNNY   32  23  70 CALM      30.32F
6HR MIN TEMP:  20; 6HR MAX TEMP:  33;

GREENCASTLE +  MOSUNNY   34  23  64 CALM      30.32F
LAFAYETTE      MOSUNNY   35  25  66 N3        30.33F
6HR MIN TEMP:  22; 6HR MAX TEMP:  35;

TERRE HAUTE    SUNNY     36  20  52 CALM      30.34F
6HR MIN TEMP:  24; 6HR MAX TEMP:  36;


$$

INZ030>032-037>040-046>048-054>057-064-065-221900-
CENTRAL INDIANA

CITY           SKY/WX    TMP DP  RH WIND       PRES   REMARKS
ANDERSON       MOSUNNY   39  32  75 NW12      30.29F WCI  32
CP ATTERBURY + MOSUNNY   39  27  60 NW7       30.32F WCI  34
COLUMBUS       MOSUNNY   37  21  52 N7        30.32F WCI  32
FISHERS *+     PTSUNNY   36  28  75 CALM      30.31F
FRANKFORT +    PTSUNNY   36  25  64 NW3       30.32F
6HR MIN TEMP:  25; 6HR MAX TEMP:  37;

GREENWOOD *+   MOSUNNY   40  25  54 CALM      30.31F
INDIANAPOLIS   PTSUNNY   36  23  59 N3        30.31F
6HR MIN TEMP:  23; 6HR MAX TEMP:  37;

-EAGLE CREEK   MOSUNNY   36  23  59 W5        30.31F WCI  32
6HR MIN TEMP:  25; 6HR MAX TEMP:  37;

KOKOMO +       MOSUNNY   36  23  59 NW7       30.31F WCI  30
6HR MIN TEMP:  26; 6HR MAX TEMP:  36;

MARION +       PTSUNNY   34  24  65 NW5       30.31F HAZE    WCI  30
MT COMFORT *+  MOSUNNY   36  27  69 NW5       30.30F WCI  32
SHELBYVILLE    MOSUNNY   39  22  50 NW7       30.30F WCI  34
6HR MIN TEMP:  25; 6HR MAX TEMP:  39;

ZIONSVILLE +   PTSUNNY   34  24  67 NW6       30.31F WCI  29
6HR MIN TEMP:  23; 6HR MAX TEMP:  34;


$$

INZ033-034-041-042-049-050-058-059-221900-
EAST CENTRAL INDIANA

CITY           SKY/WX    TMP DP  RH WIND       PRES   REMARKS
MUNCIE         MOSUNNY   37  22  54 W7        30.29F WCI  32
6HR MIN TEMP:  28; 6HR MAX TEMP:  38;

RICHMOND +     CLOUDY    34  25  69 N6        30.28S WCI  29

$$

INZ060-061-067>069-081>083-085>088-221900-
SOUTHWEST INDIANA

CITY           SKY/WX    TMP DP  RH WIND       PRES   REMARKS
EVANSVILLE     SUNNY     39  23  52 NW6       30.34F WCI  35
6HR MIN TEMP:  27; 6HR MAX TEMP:  39;

HUNTINGBURG +  SUNNY     38  23  55 VRB3      30.32F
6HR MIN TEMP:  26; 6HR MAX TEMP:  38;

WASHINGTON +   SUNNY     36  19  49 CALM      30.33F
6HR MIN TEMP:  25; 6HR MAX TEMP:  37;


$$

INZ062-063-066-070>080-084-089>092-221900-
SOUTH CENTRAL AND SOUTHEAST INDIANA

CITY           SKY/WX    TMP DP  RH WIND       PRES   REMARKS
BEDFORD +      SUNNY     39  21  48 W3        30.31F
BLOOMINGTON    MOSUNNY   37  21  52 CALM      30.31F
6HR MIN TEMP:  24; 6HR MAX TEMP:  38;

MADISON *+     SUNNY     39  23  52 N5        30.31F WCI  36
NORTH VERNON + SUNNY     36  23  60 N7        30.31F WCI  30
SEYMOUR +      SUNNY     41  23  48 N9        30.31F

$$





USA.gov is the U.S. government's official web portal to all federal, state and local government web resources and services.